星链-4373 (STARLINK-4373 )

导读

STARLINK-4373是美国于2022年7月22日发射的星链卫星,隶属于SpaceX星链互联网星座项目。星链计划旨在搭建全球卫星互联网,为全球偏远地区、海洋等网络覆盖薄弱区域提供低成本高速网络服务,该卫星入轨后承担相应的网络信号转发任务,是星链低轨星座组网建设的组成部分。

基本信息
目录编号:
53219
目录名称:
STARLINK-4373
国际标识:
2022-084AG
轨道中心:
EARTH
卫星名称:
星链-4373
卫星全名:
星链-4373 (STARLINK-4373 )
卫星状态:
在轨 (已飞行1512 天)
发射日期:
2022-07-22 UTC
国别 :
美国 (US)
星等 :
--
该卫星已列入 空间交会检测服务 Space Conjunction Data Service (SCDS) ,当前飞行风险评估等级: 无高风险
轨道信息
数据来源 国际轨道数据
星历时间: 2026-09-11T16:00:04+0800
11小时前
查看轨道信息
半长轴: 6849.201km
偏心率: 0.0000801
轨道倾角: 97.284°
近地点辐角 71.370°
升交点赤经 310.113°
平近点角 285.908°
近地点: 470.515km
远地点: 471.613km
周期: 94.020分钟
每日圈数: 15.315915
详细信息
固有亮度:
5
最大亮度:
2.5
卫星平台:
Starlink v1.5
覆盖范围:
全球
运营商:
太空探索技术公司
运营商所在国:
美国
制造商(研发单位):
太空探索技术公司
制造商所在国:
美国
使用方式:
暂无
卫星简介
星链(Starlink)计划是由太空探索技术公司(SpaceX)提出的一个巨型低轨卫星互联网星座项目,计划在2019年至2024年间在太空搭建由约1.2万颗卫星组成的“星链”网络,其中1584颗将部署在地球上空550千米处的近地轨道,并从2020年开始工作。该卫星仍在工作。
2D轨道图
3D轨道图
轨道高度分析图
轨道倾角分析图
轨道综合分析图
查看轨道综合分析图
与全量物体交会距离演化趋势
与全量物体交会风险概率演化趋势